[[{"header":{"parameterUnit":"m.s-1","parameterCategory":1,"la1":30.2991,"la2":30.254,"lo1":-89.0895,"lo2":-89.0444,"dy":0.0017,"dx":0.0017,"nx":28,"ny":28,"refTime":"2025-08-21T21:00:00:Z","depth":0,"parameterNumber":2,"parameterNumberName":"U-component_of_WINDS"},"data":[0,0,0,0,0,0,0,0,0,0,0,0,0,0,0,0,0,0,0,0,0,0,0,0,0,0,0,0,0,0,0,0,0,0,0,0,0,0,0,0,0,0,0,0,0,0,0,0,0,0,0,0,0,0,0,0,0,0,2.1633,2.1632,0,2.1521,2.152,2.1518,2.1379,2.1377,2.1375,2.1373,2.1261,2.126,2.1259,0,0,0,0,0,0,0,0,0,0,0,0,0,2.1729,2.1728,2.1633,2.1632,2.1631,2.1521,2.152,2.1518,2.138,2.1377,2.1374,2.1372,2.1261,2.126,2.1259,0,0,0,0,0,0,0,0,0,0,0,0,0,2.1659,2.1727,2.1634,2.1548,2.1539,2.1521,2.152,2.1518,2.138,2.1377,2.1374,2.137,2.1262,2.126,2.1259,2.1317,0,0,2.1255,2.1254,0,0,0,0,0,0,0,0,2.1663,2.1656,2.1562,2.1554,2.1544,2.1461,2.1512,2.1451,2.1381,2.1441,2.1373,2.1369,2.133,2.1323,2.1309,2.1312,2.1307,2.1255,2.1254,2.1253,2.1253,0,0,0,0,0,0,0,2.1668,2.166,2.1589,2.1561,2.155,2.1516,2.1502,2.15,2.1406,2.1435,2.1425,2.1413,2.1325,2.1311,2.1306,2.1305,2.1255,2.1254,2.1253,2.1252,2.1344,2.1347,0,0,0,0,0,0,2.1686,2.1665,2.1593,2.1586,2.1597,2.1517,2.1501,2.1491,2.1405,2.1389,2.1416,2.1407,2.1315,2.1308,2.1301,2.1359,2.1253,2.1252,2.1251,2.134,2.1344,2.1348,0,0,0,0,0,0,2.1688,2.1681,2.1597,2.1622,2.1609,2.1518,2.1508,2.149,2.1476,2.1391,2.1374,2.1419,2.1312,2.1303,2.1312,2.1353,2.1251,2.125,2.1337,2.1342,2.1346,2.1478,0,0,0,0,0,0,2.1692,2.1682,2.1703,2.1624,2.1608,2.161,2.151,2.1491,2.1474,2.1461,2.1389,2.1374,2.1309,2.1315,2.1311,2.1349,2.1249,2.1332,2.1339,2.1345,2.1469,2.1486,2.1501,0,0,0,0,0,2.1695,2.1747,2.1705,2.1697,2.1633,2.1613,2.1604,2.1527,2.1478,2.1498,2.1442,2.1376,2.135,2.1317,2.1312,2.135,2.1329,2.1337,2.1344,2.1462,2.1483,2.1501,0,0,0,0,0,0,2.1836,2.1735,2.1688,2.1715,2.1673,2.159,2.1612,2.1553,2.1525,2.1514,2.1421,2.1406,2.1426,2.1389,2.1355,2.1399,2.133,2.1336,2.1421,2.1441,2.1456,2.1463,2.1248,0,0,0,0,0,2.1869,2.1861,2.1774,2.1807,2.1788,2.1704,2.1693,2.1637,2.1591,2.1573,2.1518,2.1476,2.1457,2.1448,2.1427,2.1464,2.1444,2.1487,2.1504,2.1517,2.1523,2.1535,2.1552,2.1372,2.1372,2.1372,0,0,2.194,2.1884,2.1885,2.1833,2.1794,2.1787,2.1691,2.1689,2.1682,2.1573,2.1576,2.1535,2.1482,2.1504,2.1511,2.1474,2.1568,2.1526,2.1538,2.1536,2.1544,2.1561,2.1576,2.1377,2.1376,2.1375,0,0,2.2062,2.2021,2.204,2.2003,2.1945,2.1888,2.1893,2.1818,2.1785,2.1788,2.1704,2.1696,2.1667,2.1631,2.1609,2.1716,2.1653,2.1712,2.1794,2.1807,2.1821,2.1833,2.1867,2.1881,2.1719,2.1719,2.1719,0,2.2157,2.2142,2.2059,2.206,2.2038,2.1938,2.1956,2.1924,2.1863,2.185,2.181,2.1769,2.1727,2.1736,2.1762,2.1749,2.175,2.1718,2.1826,2.1837,2.1847,2.1878,2.1892,2.1726,2.1726,2.1725,2.1724,0,2.2259,2.225,2.2274,2.2213,2.2195,2.2206,2.2123,2.2114,2.206,2.2008,2.2009,2.1955,2.1918,2.1917,2.1866,2.1919,2.1897,2.1843,2.1771,2.1873,2.19,2.1912,2.1737,2.1734,2.1732,2.173,0,0,2.2466,2.2358,2.2368,2.2337,2.2265,2.2256,2.2262,2.2224,2.2217,2.2178,2.2178,2.2155,2.2102,2.2078,2.2021,2.2033,2.2115,2.1977,2.1974,2.2001,2.2165,2.2204,2.2219,2.2074,2.2076,2.2078,2.2168,0,2.2572,2.2572,2.2496,2.2518,2.2507,2.2411,2.2414,2.237,2.2321,2.2304,2.2251,2.2234,2.2169,2.2153,2.2161,2.2104,2.2146,2.2097,2.207,2.2071,2.2083,2.2234,2.2275,2.2363,2.2179,2.2181,2.2182,0,2.2695,2.266,2.268,2.2603,2.2596,2.26,2.2558,2.2544,2.2491,2.2454,2.2426,2.236,2.2358,2.2292,2.2286,2.2254,2.2239,2.2209,2.2211,2.2203,2.213,2.2226,2.239,2.2402,2.2199,2.2198,2.2197,0,2.2838,2.2797,2.2802,2.278,2.2692,2.2696,2.266,2.2603,2.2585,2.2549,2.2535,2.25,2.248,2.2454,2.238,2.234,2.2381,2.231,2.2348,2.235,2.2359,2.2359,2.2519,2.2357,2.2357,2.2356,2.2356,0,2.2961,2.2976,2.2864,2.2867,2.288,2.2793,2.2808,2.2763,2.2713,2.2704,2.2621,2.2615,2.2519,2.2502,2.2444,2.2445,2.2439,2.2407,2.2391,2.2412,2.2416,2.2398,2.2389,2.236,2.2359,2.2358,2.2358,0,2.3122,2.3048,2.3046,2.2962,2.2941,2.2954,2.2881,2.288,2.2826,2.2816,2.2809,2.2723,2.2698,2.2622,2.2579,2.254,2.2557,2.253,2.2574,2.2563,2.2604,2.2599,2.2756,2.277,2.2603,2.2605,2.2606,0,2.3203,2.3211,2.3128,2.3115,2.3082,2.3064,2.3043,2.2958,2.294,2.2879,2.2885,2.2853,2.2822,2.2786,2.272,2.2686,2.2653,2.2711,2.2648,2.2667,2.2649,2.2647,2.2646,2.2723,2.2726,2.2727,2.2729,0,2.3354,2.3316,2.329,2.325,2.3227,2.3192,2.3153,2.3148,2.3052,2.3036,2.3008,2.2985,2.2938,2.2907,2.2861,2.2823,2.2759,2.275,2.2755,2.2775,2.2799,2.2782,2.2607,2.2746,2.2744,2.2743,2.2742,2.2741,2.3473,2.3475,2.3415,2.3388,2.3348,2.3313,2.3306,2.325,2.3225,2.318,2.3132,2.3109,2.3053,2.2984,2.2951,2.2931,2.2897,2.2907,2.2909,2.2912,2.292,2.2806,2.2923,2.2922,2.2922,2.2921,2.2921,0,2.3615,2.3572,2.3548,2.3493,2.3471,2.3414,2.3366,2.3351,2.3331,2.3285,2.3256,2.3222,2.319,2.3122,2.3083,2.308,2.3049,2.3072,2.3069,2.3061,2.2954,2.2951,2.3097,2.3097,2.3097,2.3097,2.3097,2.3097,2.3686,2.3684,2.364,2.3617,2.3573,2.3549,2.3526,2.3492,2.3453,2.3419,2.3392,2.3347,2.329,2.3247,2.3214,2.3194,2.3182,2.3214,2.3184,2.3086,2.3069,2.3053,2.3048,2.3213,2.3213,2.3291,2.3292,2.3293]},{"header":{"parameterUnit":"m.s-1","parameterCategory":1,"la1":30.2991,"la2":30.254,"lo1":-89.0895,"lo2":-89.0444,"dy":0.0017,"dx":0.0017,"nx":28,"ny":28,"refTime":"2025-08-21T21:00:00:Z","depth":0,"parameterNumber":3,"parameterNumberName":"V-component_of_WINDS"},"data":[0,0,0,0,0,0,0,0,0,0,0,0,0,0,0,0,0,0,0,0,0,0,0,0,0,0,0,0,0,0,0,0,0,0,0,0,0,0,0,0,0,0,0,0,0,0,0,0,0,0,0,0,0,0,0,0,0,0,1.3643,1.3644,0,1.3738,1.3739,1.374,1.3818,1.3819,1.3819,1.382,1.391,1.3912,1.3913,0,0,0,0,0,0,0,0,0,0,0,0,0,1.3526,1.3527,1.3642,1.3644,1.3645,1.3738,1.3739,1.374,1.3818,1.3819,1.382,1.3821,1.391,1.3911,1.3913,0,0,0,0,0,0,0,0,0,0,0,0,0,1.3594,1.3528,1.3642,1.3695,1.3701,1.3737,1.3739,1.374,1.3817,1.3819,1.382,1.3821,1.3909,1.3911,1.3914,1.3903,0,0,1.3921,1.3922,0,0,0,0,0,0,0,0,1.359,1.3598,1.3686,1.3691,1.3698,1.3767,1.3731,1.3795,1.3817,1.3773,1.382,1.3822,1.3861,1.3867,1.3882,1.3908,1.3911,1.3921,1.3923,1.3924,1.3924,0,0,0,0,0,0,0,1.3585,1.3594,1.368,1.3687,1.3694,1.3713,1.3724,1.3743,1.3808,1.3777,1.3783,1.3793,1.3864,1.388,1.3885,1.3913,1.3921,1.3923,1.3925,1.3926,1.3942,1.3941,0,0,0,0,0,0,1.3573,1.359,1.3677,1.3683,1.3646,1.3714,1.3727,1.3744,1.3809,1.382,1.3792,1.3797,1.3875,1.3882,1.3888,1.3886,1.3924,1.3926,1.3927,1.3943,1.3942,1.394,0,0,0,0,0,0,1.357,1.358,1.3673,1.3638,1.3652,1.3715,1.3733,1.3745,1.376,1.382,1.3832,1.3796,1.3876,1.3885,1.3901,1.3889,1.3927,1.3929,1.3944,1.3942,1.3941,1.3876,0,0,0,0,0,0,1.3566,1.3578,1.3575,1.3638,1.3653,1.3684,1.3733,1.3746,1.3765,1.3772,1.3827,1.3837,1.3878,1.3897,1.3904,1.3893,1.3931,1.3945,1.3943,1.3941,1.3879,1.3872,1.3866,0,0,0,0,0,1.3562,1.355,1.3574,1.3584,1.3651,1.3684,1.3692,1.3742,1.3764,1.3761,1.3801,1.3835,1.389,1.3898,1.3906,1.3896,1.3946,1.3944,1.3942,1.3882,1.3874,1.3867,0,0,0,0,0,0,1.3479,1.3558,1.3587,1.3595,1.3633,1.3697,1.3694,1.373,1.376,1.3764,1.3823,1.3834,1.3845,1.3872,1.388,1.3894,1.3923,1.3922,1.3875,1.3868,1.3861,1.3854,1.3933,0,0,0,0,0,1.3463,1.3484,1.3552,1.3552,1.3571,1.363,1.3645,1.3681,1.3721,1.3737,1.3777,1.3813,1.384,1.3855,1.3882,1.3884,1.39,1.3882,1.3876,1.387,1.3868,1.3878,1.3872,1.3933,1.3933,1.3933,0,0,1.3426,1.3473,1.3482,1.3537,1.3571,1.3592,1.3642,1.366,1.3677,1.3739,1.3759,1.379,1.3835,1.3846,1.3852,1.3869,1.3856,1.3867,1.3862,1.3864,1.3875,1.3869,1.3864,1.3931,1.3932,1.3932,0,0,1.3373,1.3409,1.3417,1.3452,1.3504,1.3545,1.3546,1.3607,1.3632,1.3654,1.3703,1.3723,1.3765,1.3797,1.3818,1.3786,1.382,1.3793,1.3758,1.3766,1.3762,1.3758,1.375,1.3746,1.3791,1.3791,1.3791,0,1.3321,1.3358,1.3415,1.3434,1.3459,1.3521,1.353,1.3559,1.3616,1.3631,1.3649,1.3709,1.3743,1.3765,1.3758,1.3772,1.3778,1.3786,1.3758,1.3755,1.3752,1.3745,1.3741,1.3788,1.3788,1.3788,1.3789,0,1.3294,1.3318,1.3318,1.3377,1.3402,1.3414,1.3475,1.3493,1.3528,1.3567,1.3591,1.3635,1.3675,1.3683,1.3714,1.3711,1.3721,1.3747,1.3778,1.3742,1.3736,1.3734,1.3783,1.3784,1.3785,1.3786,0,0,1.3186,1.3283,1.3282,1.3313,1.3379,1.3398,1.3416,1.3459,1.3475,1.3513,1.3531,1.357,1.3598,1.3622,1.3659,1.3666,1.3644,1.3694,1.3696,1.3685,1.3647,1.3628,1.3623,1.3667,1.3667,1.3667,1.3645,0,1.3145,1.3183,1.324,1.3259,1.3285,1.3348,1.3364,1.3406,1.3445,1.3472,1.3514,1.3542,1.3574,1.3591,1.3601,1.3644,1.3637,1.3646,1.3685,1.3686,1.3673,1.362,1.3598,1.3574,1.3642,1.3642,1.3642,0,1.3101,1.3143,1.3166,1.3237,1.325,1.3263,1.3311,1.3336,1.3387,1.3415,1.3446,1.3489,1.3512,1.3541,1.3576,1.3581,1.3601,1.3625,1.3626,1.3631,1.3662,1.3626,1.3568,1.3565,1.3638,1.3639,1.3639,0,1.3024,1.3086,1.311,1.3133,1.3215,1.3224,1.3258,1.3311,1.3335,1.3376,1.3394,1.3435,1.3458,1.349,1.3543,1.3558,1.3574,1.3605,1.3599,1.3597,1.3598,1.3598,1.3544,1.3608,1.3608,1.3608,1.3609,0,1.2973,1.2986,1.3078,1.3092,1.311,1.3175,1.319,1.323,1.3278,1.3302,1.3357,1.3378,1.3447,1.3476,1.3518,1.3543,1.3552,1.3576,1.3587,1.3572,1.3569,1.3585,1.3589,1.3608,1.3608,1.3608,1.3608,0,1.289,1.2951,1.2983,1.3061,1.3081,1.309,1.3157,1.3174,1.3219,1.3249,1.3259,1.3328,1.3367,1.3424,1.3477,1.3506,1.3525,1.3542,1.3509,1.3516,1.3507,1.3508,1.3463,1.3462,1.3525,1.3524,1.3524,0,1.2854,1.2866,1.2948,1.2971,1.3004,1.3038,1.3066,1.3132,1.3158,1.3221,1.3231,1.3275,1.3314,1.3373,1.3427,1.347,1.3489,1.3471,1.3496,1.3482,1.3493,1.3492,1.3495,1.3465,1.3464,1.3463,1.3462,0,1.2784,1.2817,1.2855,1.2907,1.294,1.2983,1.3028,1.3042,1.3118,1.3145,1.3188,1.3218,1.3278,1.3321,1.3373,1.3408,1.3448,1.3455,1.3456,1.3441,1.3422,1.3436,1.3495,1.3455,1.3456,1.3456,1.3457,1.3457,1.2725,1.2742,1.2805,1.2848,1.2891,1.2933,1.2956,1.3006,1.3044,1.31,1.3136,1.3178,1.3234,1.3309,1.3342,1.3376,1.3392,1.3393,1.3393,1.3393,1.3389,1.3417,1.3385,1.3385,1.3386,1.3386,1.3386,0,1.2662,1.2707,1.2747,1.2812,1.2847,1.2887,1.2941,1.2967,1.3004,1.3054,1.3094,1.3145,1.319,1.325,1.3299,1.3315,1.3335,1.3326,1.3326,1.3334,1.337,1.3366,1.3309,1.3309,1.3309,1.3309,1.3309,1.3309,1.2633,1.2665,1.2705,1.2761,1.2805,1.285,1.2878,1.2918,1.296,1.3017,1.3056,1.3096,1.3152,1.3207,1.325,1.3267,1.3283,1.3269,1.3291,1.3324,1.3331,1.3337,1.3334,1.3271,1.3271,1.3253,1.3253,1.3253]}]]